Regional Weather Roundup
Issued by NWS

Home | Current Version | Previous Version | Graphics & Text | Print | Product List | Glossary On
Versions: 1 2 3 4 5 6 7 8 9 10 11 12 13 14 15 16 17 18 19 20 21 22 23 24 25 26 27 28 29 30 31 32 33 34 35 36 37 38 39 40 41 42 43 44 45 46 47 48 49 50
000
ASUS45 KABQ 290110
RWRNM
NEW MEXICO REGIONAL WEATHER ROUNDUP
NATIONAL WEATHER SERVICE ALBUQUERQUE NM
700 PM MDT SUN AUG 28 2016

NOTE: "FAIR" MEANS FEW OR NO CLOUDS BELOW 12,000 FEET AGL WITH NO
       SIGNIFICANT WEATHER OR OBSTRUCTIONS TO VISION.

      THIS PRODUCT IS RELEASED AS TWO VERSIONS.  ONE VERSION NEAR
      THE TOP OF THE HOUR CONTAINING PRELIMINARY DATA FROM ALBUQUERQUE
      AND OTHER STATIONS.  A FINAL VERSION WITH ADDITIONAL DATA IS
      ISSUED ABOUT 10 MINUTES AFTER THE HOUR.

NMZ501-503-504-510>518-290200-
NORTHWEST PLATEAU/NORTHCENTRAL MOUNTAINS

CITY           SKY/WX    TMP DP  RH WIND       PRES   REMARKS
FARMINGTON     FAIR      65  46  50 VRB3      30.21S
SANTA FE       FAIR      72  39  30 W10       30.23S
TAOS           FAIR      72  36  26 SW12      30.27S
ANGEL FIRE     FAIR      62  35  37 SW5       30.36R

$$
NMZ402-403-502-505>509-290200-
WESTCENTRAL MOUNTAINS/SOUTHWEST MOUNTAINS

CITY           SKY/WX    TMP DP  RH WIND       PRES   REMARKS
GALLUP         FAIR      67  41  38 N17G26    30.27F
GRANTS         FAIR      64  46  52 SE5       30.32F
SILVER CITY    FAIR      74  55  52 E5        30.16S

$$
NMZ407-409-411-412-290200-
SOUTHERN DESERTS

CITY           SKY/WX    TMP DP  RH WIND       PRES   REMARKS
DEMING         FAIR      78  51  38 E6        30.09F
LAS CRUCES     FAIR      78  53  41 N6        30.11S
HOLLOMAN AFB   FAIR      80  49  33 NW7       30.06R
ALAMOGORDO     FAIR      82  39  21 NW7       30.08S
T OR C         FAIR      79  41  25 NW7       30.12F

$$
NMZ519>523-290200-
CENTRAL VALLEYS/CENTRAL HIGHLANDS

CITY           SKY/WX    TMP DP  RH WIND       PRES   REMARKS
ALBUQUERQUE    FAIR      75  41  29 N9        30.19F
DOUBLE EAGLE   CLOUDY    73  43  33 NW8       30.23F
MORIARTY ARPT  MOCLDY    73  39  29 SW5       30.25S
CLINES CORNERS FAIR      66  47  50 CALM      30.30R
BELEN          FAIR      75  38  26 NW14      30.18F
SOCORRO        FAIR      79  42  27 N6        30.14R

$$
NMZ524>526-539-540-290200-
SOUTHCENTRAL MOUNTAINS

CITY           SKY/WX    TMP DP  RH WIND       PRES   REMARKS
RUIDOSO          N/A     66  50  55 SE5       30.30S

$$
NMZ527>531-290200-
NORTHEAST HIGHLANDS/NORTHEAST PLAINS

CITY           SKY/WX    TMP DP  RH WIND       PRES   REMARKS
LAS VEGAS      FAIR      70  38  31 SW12      30.24S
RATON          MOCLDY    76  43  30 S8        30.18S
CLAYTON        FAIR      75  60  59 SE16      30.14R

$$
NMZ532>537-290200-
EASTCENTRAL PLAINS

CITY           SKY/WX    TMP DP  RH WIND       PRES   REMARKS
TUCUMCARI      LGT RAIN  69  62  78 SE14      30.08R
CANNON AFB     CLOUDY    72  59  64 N6        30.17R
CLOVIS AIRPORT CLOUDY    72  57  60 N16       30.17R

$$
NMZ028-029-538-290200-
SOUTHEAST PLAINS

CITY           SKY/WX    TMP DP  RH WIND       PRES   REMARKS
ROSWELL        FAIR      80  60  50 S7        30.07R
ARTESIA        FAIR      75  61  60 SE12G18   30.07R
CARLSBAD       FAIR      81  60  48 NW13      30.02S
HOBBS          FAIR      82  57  42 E9        30.06S


$$




USA.gov is the U.S. government's official web portal to all federal, state and local government web resources and services.